Find Protostar 2

NORAD ID: 34941 Int'l Des: 2009-027 Owner: PROTO Country: BM operational
HEOCIRCULARGSOGEO

Live Position

Loading 3D Globe...

About Protostar 2

Description loading...

Upcoming Passes

Passes for default location (London). Set your location on the main map for personalized predictions.

Altitude History

Loading altitude history...

Two-Line Element Set

1 34941U 09027A 26110.52612971 -.00000346 00000-0 00000-0 0 9996
2 34941 0.1050 79.3513 0001887 238.5773 188.3607 1.00270691 62058
Epoch: Apr 20, 2026 • Age: 13 hours

Current Status

Altitude 35779.1 km
Velocity 3.08 km/s
Sub-Earth Point -0.08°S, 108.27°E
Launch Date May 16, 2009
Age 16.9 years
Type other

Technical Details

Classification Payload
Mass 3905.00 kg
Dry Mass 2000.00 kg
Total Mass 3905.00 kg
Length 4.10 m
Diameter 3.60 m
Span 26.00 m
Shape Box + 2 Pan
Manufacturer BOES
Bus Type HS-601HP
Phase Status Unknown Active Status
Owner/State PROTO/BM

Most Searched